Year,Month,Day,Hour,Minute,Value (Times are PST for windgust in km/hr)
2016,03,23,00,00,6.40
2016,03,23,00,01,6.40
2016,03,23,00,02,4.80
2016,03,23,00,03,6.40
2016,03,23,00,04,4.80
2016,03,23,00,05,4.80
2016,03,23,00,06,3.20
2016,03,23,00,07,4.80
2016,03,23,00,08,3.20
2016,03,23,00,45,4.80
2016,03,23,00,46,6.40
2016,03,23,00,47,6.40
2016,03,23,00,48,6.40
2016,03,23,00,49,4.80
2016,03,23,00,50,6.40
2016,03,23,00,51,6.40
2016,03,23,00,52,4.80
2016,03,23,00,53,4.80
2016,03,23,00,54,6.40
2016,03,23,00,55,6.40
2016,03,23,00,56,4.80
2016,03,23,00,57,4.80
2016,03,23,00,58,4.80
2016,03,23,00,59,4.80
2016,03,23,01,00,4.80
2016,03,23,01,01,6.40
2016,03,23,01,02,4.80
2016,03,23,01,03,4.80
2016,03,23,01,04,4.80
2016,03,23,01,05,4.80
2016,03,23,01,06,4.80
2016,03,23,01,07,3.20
2016,03,23,01,08,4.80
2016,03,23,01,09,4.80
2016,03,23,01,10,4.80
2016,03,23,01,11,3.20
2016,03,23,01,21,4.80
2016,03,23,01,22,4.80
2016,03,23,01,23,4.80
2016,03,23,01,24,4.80
2016,03,23,01,25,6.40
2016,03,23,01,26,4.80
2016,03,23,01,27,6.40
2016,03,23,01,28,6.40
2016,03,23,01,29,6.40
2016,03,23,01,30,6.40
2016,03,23,01,31,6.40
2016,03,23,01,32,4.80
2016,03,23,01,33,4.80
2016,03,23,01,34,4.80
2016,03,23,01,35,6.40
2016,03,23,01,36,6.40
2016,03,23,01,37,4.80
2016,03,23,01,38,4.80
2016,03,23,01,39,4.80
2016,03,23,01,40,4.80
2016,03,23,01,41,3.20
2016,03,23,01,42,3.20
2016,03,23,01,43,1.60
2016,03,23,02,38,4.80
2016,03,23,02,39,6.40
2016,03,23,02,40,6.40
2016,03,23,02,41,6.40
2016,03,23,02,42,4.80
2016,03,23,02,43,6.40
2016,03,23,02,44,6.40
2016,03,23,02,45,4.80
2016,03,23,02,46,6.40
2016,03,23,02,47,6.40
2016,03,23,02,48,6.40
2016,03,23,02,49,6.40
2016,03,23,02,50,6.40
2016,03,23,02,51,4.80
2016,03,23,02,52,4.80
2016,03,23,02,53,3.20
2016,03,23,02,54,3.20
2016,03,23,02,55,3.20
2016,03,23,02,56,3.20
2016,03,23,02,57,6.40
2016,03,23,02,58,6.40
2016,03,23,02,59,8.10
2016,03,23,03,00,9.60
2016,03,23,03,01,12.90
2016,03,23,03,02,9.60
2016,03,23,03,03,8.10
2016,03,23,03,04,6.40
2016,03,23,03,05,4.80
2016,03,23,03,06,4.80
2016,03,23,03,07,3.20
2016,03,23,03,08,1.60
2016,03,23,03,10,1.60
2016,03,23,03,11,3.20
2016,03,23,03,12,1.60
2016,03,23,03,29,3.20
2016,03,23,03,30,3.20
2016,03,23,03,31,1.60
2016,03,23,03,37,3.20
2016,03,23,03,38,3.20
2016,03,23,03,39,3.20
2016,03,23,03,40,3.20
2016,03,23,03,41,3.20
2016,03,23,03,42,3.20
2016,03,23,03,43,1.60
2016,03,23,03,44,1.60
2016,03,23,03,45,3.20
2016,03,23,03,46,3.20
2016,03,23,03,47,3.20
2016,03,23,03,48,3.20
2016,03,23,03,49,3.20
2016,03,23,03,50,4.80
2016,03,23,03,51,4.80
2016,03,23,03,52,4.80
2016,03,23,03,53,4.80
2016,03,23,03,54,4.80
2016,03,23,03,55,4.80
2016,03,23,03,56,4.80
2016,03,23,03,57,4.80
2016,03,23,03,58,4.80
2016,03,23,03,59,4.80
2016,03,23,04,00,4.80
2016,03,23,04,01,4.80
2016,03,23,04,02,4.80
2016,03,23,04,03,4.80
2016,03,23,04,04,4.80
2016,03,23,04,05,4.80
2016,03,23,04,06,4.80
2016,03,23,04,07,6.40
2016,03,23,04,08,4.80
2016,03,23,04,09,6.40
2016,03,23,04,10,6.40
2016,03,23,04,11,4.80
2016,03,23,04,12,4.80
2016,03,23,04,13,4.80
2016,03,23,04,14,4.80
2016,03,23,04,15,4.80
2016,03,23,04,16,4.80
2016,03,23,04,17,4.80
2016,03,23,04,18,4.80
2016,03,23,04,19,3.20
2016,03,23,04,20,3.20
2016,03,23,04,21,3.20
2016,03,23,04,22,3.20
2016,03,23,04,23,3.20
2016,03,23,04,24,3.20
2016,03,23,04,25,4.80
2016,03,23,04,26,3.20
2016,03,23,04,27,3.20
2016,03,23,04,28,4.80
2016,03,23,04,29,3.20
2016,03,23,04,30,3.20
2016,03,23,04,31,1.60
2016,03,23,04,32,3.20
2016,03,23,04,33,4.80
2016,03,23,04,34,3.20
2016,03,23,04,35,3.20
2016,03,23,04,36,6.40
2016,03,23,04,37,6.40
2016,03,23,04,38,6.40
2016,03,23,04,39,4.80
2016,03,23,04,40,4.80
2016,03,23,04,41,6.40
2016,03,23,04,42,9.60
2016,03,23,04,43,6.40
2016,03,23,04,44,11.30
2016,03,23,04,45,4.80
2016,03,23,04,46,6.40
2016,03,23,04,47,6.40
2016,03,23,04,48,4.80
2016,03,23,04,49,6.40
2016,03,23,04,50,11.30
2016,03,23,04,51,9.60
2016,03,23,04,52,4.80
2016,03,23,04,53,9.60
2016,03,23,04,54,11.30
2016,03,23,04,55,11.30
2016,03,23,04,56,11.30
2016,03,23,04,57,9.60
2016,03,23,04,58,11.30
2016,03,23,04,59,8.10
2016,03,23,05,00,8.10
2016,03,23,05,01,6.40
2016,03,23,05,02,9.60
2016,03,23,05,03,6.40
2016,03,23,05,04,9.60
2016,03,23,05,05,8.10
2016,03,23,05,06,8.10
2016,03,23,05,07,6.40
2016,03,23,05,08,8.10
2016,03,23,05,09,6.40
2016,03,23,05,10,6.40
2016,03,23,05,11,6.40
2016,03,23,05,12,4.80
2016,03,23,05,13,8.10
2016,03,23,05,14,6.40
2016,03,23,05,15,6.40
2016,03,23,05,16,8.10
2016,03,23,05,17,11.30
2016,03,23,05,18,6.40
2016,03,23,05,19,9.60
2016,03,23,05,20,11.30
2016,03,23,05,21,14.50
2016,03,23,05,22,12.90
2016,03,23,05,23,9.60
2016,03,23,05,24,14.50
2016,03,23,05,25,12.90
2016,03,23,05,26,14.50
2016,03,23,05,27,12.90
2016,03,23,05,28,14.50
2016,03,23,05,29,14.50
2016,03,23,05,30,20.90
2016,03,23,05,31,17.70
2016,03,23,05,32,14.50
2016,03,23,05,33,17.70
2016,03,23,05,34,14.50
2016,03,23,05,35,16.10
2016,03,23,05,36,14.50
2016,03,23,05,37,16.10
2016,03,23,05,38,14.50
2016,03,23,05,39,11.30
2016,03,23,05,40,6.40
2016,03,23,05,41,12.90
2016,03,23,05,42,12.90
2016,03,23,05,43,12.90
2016,03,23,05,44,12.90
2016,03,23,05,45,9.60
2016,03,23,05,46,9.60
2016,03,23,05,47,16.10
2016,03,23,05,48,12.90
2016,03,23,05,49,12.90
2016,03,23,05,50,16.10
2016,03,23,05,51,12.90
2016,03,23,05,52,12.90
2016,03,23,05,53,14.50
2016,03,23,05,54,16.10
2016,03,23,05,55,16.10
2016,03,23,05,56,14.50
2016,03,23,05,57,14.50
2016,03,23,05,58,16.10
2016,03,23,05,59,12.90
2016,03,23,06,00,12.90
2016,03,23,06,01,16.10
2016,03,23,06,02,12.90
2016,03,23,06,03,14.50
2016,03,23,06,04,12.90
2016,03,23,06,05,14.50
2016,03,23,06,06,16.10
2016,03,23,06,07,20.90
2016,03,23,06,08,22.50
2016,03,23,06,09,24.20
2016,03,23,06,10,16.10
2016,03,23,06,11,20.90
2016,03,23,06,12,20.90
2016,03,23,06,13,19.30
2016,03,23,06,14,20.90
2016,03,23,06,15,20.90
2016,03,23,06,16,19.30
2016,03,23,06,17,19.30
2016,03,23,06,18,19.30
2016,03,23,06,19,19.30
2016,03,23,06,20,19.30
2016,03,23,06,21,14.50
2016,03,23,06,22,14.50
2016,03,23,06,23,17.70
2016,03,23,06,24,17.70
2016,03,23,06,25,16.10
2016,03,23,06,26,17.70
2016,03,23,06,27,20.90
2016,03,23,06,28,24.20
2016,03,23,06,29,17.70
2016,03,23,06,30,19.30
2016,03,23,06,31,14.50
2016,03,23,06,32,14.50
2016,03,23,06,33,17.70
2016,03,23,06,34,17.70
2016,03,23,06,35,17.70
2016,03,23,06,36,24.20
2016,03,23,06,37,24.20
2016,03,23,06,38,22.50
2016,03,23,06,39,17.70
2016,03,23,06,40,19.30
2016,03,23,06,41,25.70
2016,03,23,06,42,24.20
2016,03,23,06,43,16.10
2016,03,23,06,44,22.50
2016,03,23,06,45,29.00
2016,03,23,06,46,25.70
2016,03,23,06,47,25.70
2016,03,23,06,48,22.50
2016,03,23,06,49,20.90
2016,03,23,06,50,20.90
2016,03,23,06,51,22.50
2016,03,23,06,52,22.50
2016,03,23,06,53,20.90
2016,03,23,06,54,22.50
2016,03,23,06,55,17.70
2016,03,23,06,56,16.10
2016,03,23,06,57,16.10
2016,03,23,06,58,22.50
2016,03,23,06,59,19.30
2016,03,23,07,00,25.70
2016,03,23,07,01,24.20
2016,03,23,07,02,25.70
2016,03,23,07,03,22.50
2016,03,23,07,04,22.50
2016,03,23,07,05,19.30
2016,03,23,07,06,20.90
2016,03,23,07,07,16.10
2016,03,23,07,08,19.30
2016,03,23,07,09,22.50
2016,03,23,07,10,24.20
2016,03,23,07,11,19.30
2016,03,23,07,12,19.30
2016,03,23,07,13,19.30
2016,03,23,07,14,17.70
2016,03,23,07,15,22.50
2016,03,23,07,16,22.50
2016,03,23,07,17,19.30
2016,03,23,07,18,17.70
2016,03,23,07,19,17.70
2016,03,23,07,20,17.70
2016,03,23,07,21,24.20
2016,03,23,07,22,17.70
2016,03,23,07,23,25.70
2016,03,23,07,24,17.70
2016,03,23,07,25,20.90
2016,03,23,07,26,24.20
2016,03,23,07,27,27.40
2016,03,23,07,28,27.40
2016,03,23,07,29,25.70
2016,03,23,07,30,27.40
2016,03,23,07,31,30.60
2016,03,23,07,32,22.50
2016,03,23,07,33,27.40
2016,03,23,07,34,32.20
2016,03,23,07,35,30.60
2016,03,23,07,36,27.40
2016,03,23,07,37,30.60
2016,03,23,07,38,32.20
2016,03,23,07,39,27.40
2016,03,23,07,40,25.70
2016,03,23,07,41,35.40
2016,03,23,07,42,35.40
2016,03,23,07,43,29.00
2016,03,23,07,44,30.60
2016,03,23,07,45,27.40
2016,03,23,07,46,30.60
2016,03,23,07,47,29.00
2016,03,23,07,48,27.40
2016,03,23,07,49,29.00
2016,03,23,07,50,27.40
2016,03,23,07,51,30.60
2016,03,23,07,52,27.40
2016,03,23,07,53,25.70
2016,03,23,07,54,27.40
2016,03,23,07,55,27.40
2016,03,23,07,56,29.00
2016,03,23,07,57,30.60
2016,03,23,07,58,27.40
2016,03,23,07,59,27.40
2016,03,23,08,00,25.70
2016,03,23,08,01,27.40
2016,03,23,08,02,20.90
2016,03,23,08,03,27.40
2016,03,23,08,04,30.60
2016,03,23,08,05,33.80
2016,03,23,08,06,30.60
2016,03,23,08,07,33.80
2016,03,23,08,08,27.40
2016,03,23,08,09,29.00
2016,03,23,08,10,30.60
2016,03,23,08,11,37.00
2016,03,23,08,12,38.60
2016,03,23,08,13,29.00
2016,03,23,08,14,29.00
2016,03,23,08,15,29.00
2016,03,23,08,16,32.20
2016,03,23,08,17,27.40
2016,03,23,08,18,29.00
2016,03,23,08,19,29.00
2016,03,23,08,20,35.40
2016,03,23,08,21,30.60
2016,03,23,08,22,27.40
2016,03,23,08,23,30.60
2016,03,23,08,24,38.60
2016,03,23,08,25,33.80
2016,03,23,08,26,41.80
2016,03,23,08,27,35.40
2016,03,23,08,28,30.60
2016,03,23,08,29,25.70
2016,03,23,08,30,38.60
2016,03,23,08,31,41.80
2016,03,23,08,32,40.20
2016,03,23,08,33,35.40
2016,03,23,08,34,35.40
2016,03,23,08,35,41.80
2016,03,23,08,36,41.80
2016,03,23,08,37,37.00
2016,03,23,08,38,48.30
2016,03,23,08,39,35.40
2016,03,23,08,40,37.00
2016,03,23,08,41,45.10
2016,03,23,08,42,41.80
2016,03,23,08,43,32.20
2016,03,23,08,44,45.10
2016,03,23,08,45,38.60
2016,03,23,08,46,37.00
2016,03,23,08,47,33.80
2016,03,23,08,48,40.20
2016,03,23,08,49,41.80
2016,03,23,08,50,38.60
2016,03,23,08,51,37.00
2016,03,23,08,52,38.60
2016,03,23,08,53,41.80
2016,03,23,08,54,35.40
2016,03,23,08,55,40.20
2016,03,23,08,56,32.20
2016,03,23,08,57,41.80
2016,03,23,08,58,33.80
2016,03,23,08,59,38.60
2016,03,23,09,00,43.50
2016,03,23,09,01,40.20
2016,03,23,09,02,33.80
2016,03,23,09,03,35.40
2016,03,23,09,04,30.60
2016,03,23,09,05,33.80
2016,03,23,09,06,24.20
2016,03,23,09,07,35.40
2016,03,23,09,08,30.60
2016,03,23,09,09,32.20
2016,03,23,09,10,37.00
2016,03,23,09,11,41.80
2016,03,23,09,12,38.60
2016,03,23,09,13,29.00
2016,03,23,09,14,33.80
2016,03,23,09,15,32.20
2016,03,23,09,16,37.00
2016,03,23,09,17,38.60
2016,03,23,09,18,32.20
2016,03,23,09,19,38.60
2016,03,23,09,20,38.60
2016,03,23,09,21,41.80
2016,03,23,09,22,35.40
2016,03,23,09,23,32.20
2016,03,23,09,24,41.80
2016,03,23,09,25,35.40
2016,03,23,09,26,30.60
2016,03,23,09,27,37.00
2016,03,23,09,28,38.60
2016,03,23,09,29,40.20
2016,03,23,09,30,35.40
2016,03,23,09,31,43.50
2016,03,23,09,32,38.60
2016,03,23,09,33,38.60
2016,03,23,09,34,41.80
2016,03,23,09,35,41.80
2016,03,23,09,36,38.60
2016,03,23,09,37,38.60
2016,03,23,09,38,43.50
2016,03,23,09,39,41.80
2016,03,23,09,40,43.50
2016,03,23,09,41,29.00
2016,03,23,09,42,40.20
2016,03,23,09,43,41.80
2016,03,23,09,44,37.00
2016,03,23,09,45,43.50
2016,03,23,09,46,41.80
2016,03,23,09,47,35.40
2016,03,23,09,48,45.10
2016,03,23,09,49,32.20
2016,03,23,09,50,46.70
2016,03,23,09,51,51.50
2016,03,23,09,52,38.60
2016,03,23,09,53,41.80
2016,03,23,09,54,46.70
2016,03,23,09,55,45.10
2016,03,23,09,56,49.90
2016,03,23,09,57,46.70
2016,03,23,09,58,48.30
2016,03,23,09,59,51.50
2016,03,23,10,00,51.50
2016,03,23,10,01,43.50
2016,03,23,10,02,45.10
2016,03,23,10,03,45.10
2016,03,23,10,04,41.80
2016,03,23,10,05,43.50
2016,03,23,10,06,45.10
2016,03,23,10,07,54.70
2016,03,23,10,08,53.10
2016,03,23,10,09,53.10
2016,03,23,10,10,45.10
2016,03,23,10,11,33.80
2016,03,23,10,12,51.50
2016,03,23,10,13,43.50
2016,03,23,10,14,46.70
2016,03,23,10,15,48.30
2016,03,23,10,16,35.40
2016,03,23,10,17,43.50
2016,03,23,10,18,45.10
2016,03,23,10,19,48.30
2016,03,23,10,20,37.00
2016,03,23,10,21,46.70
2016,03,23,10,22,43.50
2016,03,23,10,23,43.50
2016,03,23,10,24,46.70
2016,03,23,10,25,41.80
2016,03,23,10,26,48.30
2016,03,23,10,27,54.70
2016,03,23,10,28,48.30
2016,03,23,10,29,45.10
2016,03,23,10,30,43.50
2016,03,23,10,31,49.90
2016,03,23,10,32,54.70
2016,03,23,10,33,53.10
2016,03,23,10,34,37.00
2016,03,23,10,35,43.50
2016,03,23,10,36,41.80
2016,03,23,10,37,41.80
2016,03,23,10,38,41.80
2016,03,23,10,39,54.70
2016,03,23,10,40,49.90
2016,03,23,10,41,46.70
2016,03,23,10,42,45.10
2016,03,23,10,43,43.50
2016,03,23,10,44,43.50
2016,03,23,10,45,38.60
2016,03,23,10,46,45.10
2016,03,23,10,47,46.70
2016,03,23,10,48,48.30
2016,03,23,10,49,48.30
2016,03,23,10,50,45.10
2016,03,23,10,51,48.30
2016,03,23,10,52,43.50
2016,03,23,10,53,46.70
2016,03,23,10,54,40.20
2016,03,23,10,55,40.20
2016,03,23,10,56,37.00
2016,03,23,10,57,40.20
2016,03,23,10,58,40.20
2016,03,23,10,59,46.70
2016,03,23,11,00,49.90
2016,03,23,11,01,40.20
2016,03,23,11,02,43.50
2016,03,23,11,03,51.50
2016,03,23,11,04,45.10
2016,03,23,11,05,37.00
2016,03,23,11,06,49.90
2016,03,23,11,07,45.10
2016,03,23,11,08,51.50
2016,03,23,11,09,35.40
2016,03,23,11,10,32.20
2016,03,23,11,11,51.50
2016,03,23,11,12,48.30
2016,03,23,11,13,53.10
2016,03,23,11,14,49.90
2016,03,23,11,15,43.50
2016,03,23,11,16,40.20
2016,03,23,11,17,40.20
2016,03,23,11,18,38.60
2016,03,23,11,19,37.00
2016,03,23,11,20,46.70
2016,03,23,11,21,37.00
2016,03,23,11,22,33.80
2016,03,23,11,23,43.50
2016,03,23,11,24,41.80
2016,03,23,11,25,38.60
2016,03,23,11,26,35.40
2016,03,23,11,29,53.10
2016,03,23,11,30,46.70
2016,03,23,11,31,38.60
2016,03,23,11,32,45.10
2016,03,23,11,33,41.80
2016,03,23,11,34,33.80
2016,03,23,11,35,54.70
2016,03,23,11,36,41.80
2016,03,23,11,37,41.80
2016,03,23,11,38,43.50
2016,03,23,11,39,45.10
2016,03,23,11,40,38.60
2016,03,23,11,41,41.80
2016,03,23,11,42,43.50
2016,03,23,11,43,59.50
2016,03,23,11,44,49.90
2016,03,23,11,45,43.50
2016,03,23,11,46,45.10
2016,03,23,11,47,43.50
2016,03,23,11,48,53.10
2016,03,23,11,49,51.50
2016,03,23,11,50,43.50
2016,03,23,11,51,43.50
2016,03,23,11,52,49.90
2016,03,23,11,53,45.10
2016,03,23,11,54,53.10
2016,03,23,11,55,32.20
2016,03,23,11,56,40.20
2016,03,23,11,57,40.20
2016,03,23,11,58,46.70
2016,03,23,11,59,51.50
2016,03,23,12,00,43.50
2016,03,23,12,01,51.50
2016,03,23,12,02,37.00
2016,03,23,12,03,45.10
2016,03,23,12,04,49.90
2016,03,23,12,05,45.10
2016,03,23,12,06,49.90
2016,03,23,12,07,49.90
2016,03,23,12,08,43.50
2016,03,23,12,09,43.50
2016,03,23,12,10,45.10
2016,03,23,12,11,45.10
2016,03,23,12,12,46.70
2016,03,23,12,13,49.90
2016,03,23,12,14,43.50
2016,03,23,12,15,33.80
2016,03,23,12,16,46.70
2016,03,23,12,17,49.90
2016,03,23,12,18,41.80
2016,03,23,12,19,35.40
2016,03,23,12,20,46.70
2016,03,23,12,21,53.10
2016,03,23,12,22,46.70
2016,03,23,12,23,37.00
2016,03,23,12,24,48.30
2016,03,23,12,25,49.90
2016,03,23,12,26,53.10
2016,03,23,12,27,53.10
2016,03,23,12,28,40.20
2016,03,23,12,29,37.00
2016,03,23,12,30,38.60
2016,03,23,12,31,33.80
2016,03,23,12,32,38.60
2016,03,23,12,33,49.90
2016,03,23,12,34,35.40
2016,03,23,12,35,48.30
2016,03,23,12,36,40.20
2016,03,23,12,37,43.50
2016,03,23,12,38,48.30
2016,03,23,12,39,53.10
2016,03,23,12,40,49.90
2016,03,23,12,41,51.50
2016,03,23,12,42,53.10
2016,03,23,12,43,54.70
2016,03,23,12,44,41.80
2016,03,23,12,45,35.40
2016,03,23,12,46,45.10
2016,03,23,12,47,43.50
2016,03,23,12,48,41.80
2016,03,23,12,49,46.70
2016,03,23,12,50,57.90
2016,03,23,12,51,45.10
2016,03,23,12,52,30.60
2016,03,23,12,53,45.10
2016,03,23,12,54,56.30
2016,03,23,12,55,35.40
2016,03,23,12,56,59.50
2016,03,23,12,57,48.30
2016,03,23,12,58,46.70
2016,03,23,12,59,54.70
2016,03,23,13,00,46.70
2016,03,23,13,01,59.50
2016,03,23,13,02,61.20
2016,03,23,13,03,48.30
2016,03,23,13,04,54.70
2016,03,23,13,05,54.70
2016,03,23,13,06,48.30
2016,03,23,13,07,54.70
2016,03,23,13,08,45.10
2016,03,23,13,09,33.80
2016,03,23,13,10,45.10
2016,03,23,13,11,49.90
2016,03,23,13,12,48.30
2016,03,23,13,13,48.30
2016,03,23,13,14,46.70
2016,03,23,13,15,56.30
2016,03,23,13,16,46.70
2016,03,23,13,17,48.30
2016,03,23,13,18,53.10
2016,03,23,13,19,38.60
2016,03,23,13,20,43.50
2016,03,23,13,21,48.30
2016,03,23,13,22,56.30
2016,03,23,13,23,53.10
2016,03,23,13,24,70.80
2016,03,23,13,25,59.50
2016,03,23,13,26,53.10
2016,03,23,13,27,51.50
2016,03,23,13,28,48.30
2016,03,23,13,29,49.90
2016,03,23,13,30,56.30
2016,03,23,13,31,54.70
2016,03,23,13,32,53.10
2016,03,23,13,33,59.50
2016,03,23,13,34,51.50
2016,03,23,13,35,45.10
2016,03,23,13,36,46.70
2016,03,23,13,37,46.70
2016,03,23,13,38,48.30
2016,03,23,13,39,53.10
2016,03,23,13,40,61.20
2016,03,23,13,41,51.50
2016,03,23,13,42,56.30
2016,03,23,13,43,56.30
2016,03,23,13,44,56.30
2016,03,23,13,45,53.10
2016,03,23,13,46,48.30
2016,03,23,13,47,40.20
2016,03,23,13,48,51.50
2016,03,23,13,49,61.20
2016,03,23,13,50,45.10
2016,03,23,13,51,45.10
2016,03,23,13,52,35.40
2016,03,23,13,53,41.80
2016,03,23,13,54,35.40
2016,03,23,13,55,45.10
2016,03,23,13,56,32.20
2016,03,23,13,57,40.20
2016,03,23,13,58,56.30
2016,03,23,13,59,49.90
2016,03,23,14,00,53.10
2016,03,23,14,01,53.10
2016,03,23,14,02,43.50
2016,03,23,14,03,38.60
2016,03,23,14,04,48.30
2016,03,23,14,05,37.00
2016,03,23,14,06,35.40
2016,03,23,14,07,45.10
2016,03,23,14,08,40.20
2016,03,23,14,09,45.10
2016,03,23,14,10,49.90
2016,03,23,14,11,46.70
2016,03,23,14,12,45.10
2016,03,23,14,13,53.10
2016,03,23,14,14,49.90
2016,03,23,14,15,46.70
2016,03,23,14,16,43.50
2016,03,23,14,17,49.90
2016,03,23,14,18,45.10
2016,03,23,14,19,46.70
2016,03,23,14,20,53.10
2016,03,23,14,21,56.30
2016,03,23,14,22,54.70
2016,03,23,14,23,35.40
2016,03,23,14,24,43.50
2016,03,23,14,25,48.30
2016,03,23,14,26,43.50
2016,03,23,14,27,48.30
2016,03,23,14,28,45.10
2016,03,23,14,29,32.20
2016,03,23,14,30,48.30
2016,03,23,14,31,37.00
2016,03,23,14,32,51.50
2016,03,23,14,33,51.50
2016,03,23,14,34,49.90
2016,03,23,14,35,54.70
2016,03,23,14,36,43.50
2016,03,23,14,37,45.10
2016,03,23,14,38,37.00
2016,03,23,14,39,49.90
2016,03,23,14,40,48.30
2016,03,23,14,41,51.50
2016,03,23,14,42,53.10
2016,03,23,14,43,37.00
2016,03,23,14,44,51.50
2016,03,23,14,45,49.90
2016,03,23,14,46,40.20
2016,03,23,14,47,57.90
2016,03,23,14,48,46.70
2016,03,23,14,49,46.70
2016,03,23,14,50,49.90
2016,03,23,14,51,49.90
2016,03,23,14,52,46.70
2016,03,23,14,53,56.30
2016,03,23,14,54,57.90
2016,03,23,14,55,49.90
2016,03,23,14,56,48.30
2016,03,23,14,57,48.30
2016,03,23,14,58,61.20
2016,03,23,14,59,56.30
2016,03,23,15,00,46.70
2016,03,23,15,01,51.50
2016,03,23,15,02,53.10
2016,03,23,15,03,53.10
2016,03,23,15,04,48.30
2016,03,23,15,05,41.80
2016,03,23,15,06,40.20
2016,03,23,15,07,45.10
2016,03,23,15,08,33.80
2016,03,23,15,09,35.40
2016,03,23,15,10,25.70
2016,03,23,15,11,38.60
2016,03,23,15,12,43.50
2016,03,23,15,13,45.10
2016,03,23,15,14,40.20
2016,03,23,15,15,45.10
2016,03,23,15,16,33.80
2016,03,23,15,17,35.40
2016,03,23,15,18,24.20
2016,03,23,15,19,40.20
2016,03,23,15,20,41.80
2016,03,23,15,21,41.80
2016,03,23,15,22,45.10
2016,03,23,15,23,41.80
2016,03,23,15,24,35.40
2016,03,23,15,25,41.80
2016,03,23,15,26,46.70
2016,03,23,15,27,43.50
2016,03,23,15,28,41.80
2016,03,23,15,29,62.70
2016,03,23,15,30,43.50
2016,03,23,15,31,46.70
2016,03,23,15,32,37.00
2016,03,23,15,33,43.50
2016,03,23,15,34,49.90
2016,03,23,15,35,37.00
2016,03,23,15,36,37.00
2016,03,23,15,37,41.80
2016,03,23,15,38,48.30
2016,03,23,15,39,61.20
2016,03,23,15,40,45.10
2016,03,23,15,41,54.70
2016,03,23,15,42,62.70
2016,03,23,15,43,48.30
2016,03,23,15,44,56.30
2016,03,23,15,45,54.70
2016,03,23,15,46,46.70
2016,03,23,15,47,35.40
2016,03,23,15,48,49.90
2016,03,23,15,49,56.30
2016,03,23,15,50,54.70
2016,03,23,15,51,49.90
2016,03,23,15,52,46.70
2016,03,23,15,53,48.30
2016,03,23,15,54,51.50
2016,03,23,15,55,43.50
2016,03,23,15,56,49.90
2016,03,23,15,57,56.30
2016,03,23,15,58,56.30
2016,03,23,15,59,43.50
2016,03,23,16,00,32.20
2016,03,23,16,01,45.10
2016,03,23,16,02,48.30
2016,03,23,16,03,53.10
2016,03,23,16,04,56.30
2016,03,23,16,05,45.10
2016,03,23,16,06,49.90
2016,03,23,16,07,49.90
2016,03,23,16,08,38.60
2016,03,23,16,09,53.10
2016,03,23,16,10,45.10
2016,03,23,16,11,38.60
2016,03,23,16,12,53.10
2016,03,23,16,13,35.40
2016,03,23,16,14,37.00
2016,03,23,16,15,53.10
2016,03,23,16,16,49.90
2016,03,23,16,17,51.50
2016,03,23,16,18,48.30
2016,03,23,16,19,37.00
2016,03,23,16,20,37.00
2016,03,23,16,21,43.50
2016,03,23,16,22,35.40
2016,03,23,16,23,43.50
2016,03,23,16,24,59.50
2016,03,23,16,25,45.10
2016,03,23,16,26,45.10
2016,03,23,16,27,45.10
2016,03,23,16,28,53.10
2016,03,23,16,29,53.10
2016,03,23,16,30,49.90
2016,03,23,16,31,49.90
2016,03,23,16,32,49.90
2016,03,23,16,33,45.10
2016,03,23,16,34,40.20
2016,03,23,16,35,40.20
2016,03,23,16,36,43.50
2016,03,23,16,37,40.20
2016,03,23,16,38,43.50
2016,03,23,16,39,43.50
2016,03,23,16,40,43.50
2016,03,23,16,41,41.80
2016,03,23,16,42,51.50
2016,03,23,16,43,40.20
2016,03,23,16,44,45.10
2016,03,23,16,45,38.60
2016,03,23,16,46,41.80
2016,03,23,16,47,40.20
2016,03,23,16,48,40.20
2016,03,23,16,49,43.50
2016,03,23,16,50,40.20
2016,03,23,16,51,32.20
2016,03,23,16,52,41.80
2016,03,23,16,53,49.90
2016,03,23,16,54,49.90
2016,03,23,16,55,33.80
2016,03,23,16,56,35.40
2016,03,23,16,57,40.20
2016,03,23,16,58,29.00
2016,03,23,16,59,32.20
2016,03,23,17,00,41.80
2016,03,23,17,01,35.40
2016,03,23,17,02,33.80
2016,03,23,17,03,33.80
2016,03,23,17,04,32.20
2016,03,23,17,05,29.00
2016,03,23,17,06,46.70
2016,03,23,17,07,48.30
2016,03,23,17,08,40.20
2016,03,23,17,09,43.50
2016,03,23,17,10,41.80
2016,03,23,17,11,53.10
2016,03,23,17,12,49.90
2016,03,23,17,13,46.70
2016,03,23,17,14,53.10
2016,03,23,17,15,57.90
2016,03,23,17,16,54.70
2016,03,23,17,17,54.70
2016,03,23,17,18,49.90
2016,03,23,17,19,72.40
2016,03,23,17,20,62.70
2016,03,23,17,21,45.10
2016,03,23,17,22,51.50
2016,03,23,17,23,49.90
2016,03,23,17,24,56.30
2016,03,23,17,25,43.50
2016,03,23,17,26,45.10
2016,03,23,17,27,43.50
2016,03,23,17,28,45.10
2016,03,23,17,29,46.70
2016,03,23,17,30,48.30
2016,03,23,17,31,46.70
2016,03,23,17,32,40.20
2016,03,23,17,33,48.30
2016,03,23,17,34,70.80
2016,03,23,17,35,45.10
2016,03,23,17,36,46.70
2016,03,23,17,37,53.10
2016,03,23,17,38,57.90
2016,03,23,17,39,51.50
2016,03,23,17,40,51.50
2016,03,23,17,41,57.90
2016,03,23,17,42,51.50
2016,03,23,17,43,53.10
2016,03,23,17,44,66.00
2016,03,23,17,45,59.50
2016,03,23,17,46,45.10
2016,03,23,17,47,43.50
2016,03,23,17,48,49.90
2016,03,23,17,49,53.10
2016,03,23,17,50,43.50
2016,03,23,17,51,41.80
2016,03,23,17,52,43.50
2016,03,23,17,53,64.40
2016,03,23,17,54,49.90
2016,03,23,17,55,49.90
2016,03,23,17,56,46.70
2016,03,23,17,57,57.90
2016,03,23,17,58,46.70
2016,03,23,17,59,54.70
2016,03,23,18,00,48.30
2016,03,23,18,01,46.70
2016,03,23,18,02,40.20
2016,03,23,18,03,51.50
2016,03,23,18,04,43.50
2016,03,23,18,05,53.10
2016,03,23,18,06,53.10
2016,03,23,18,07,51.50
2016,03,23,18,08,56.30
2016,03,23,18,09,45.10
2016,03,23,18,10,51.50
2016,03,23,18,11,53.10
2016,03,23,18,12,46.70
2016,03,23,18,13,51.50
2016,03,23,18,14,43.50
2016,03,23,18,15,51.50
2016,03,23,18,16,38.60
2016,03,23,18,17,43.50
2016,03,23,18,18,30.60
2016,03,23,18,19,46.70
2016,03,23,18,20,37.00
2016,03,23,18,21,25.70
2016,03,23,18,22,38.60
2016,03,23,18,23,41.80
2016,03,23,18,24,37.00
2016,03,23,18,25,32.20
2016,03,23,18,26,35.40
2016,03,23,18,27,35.40
2016,03,23,18,28,38.60
2016,03,23,18,29,30.60
2016,03,23,18,30,22.50
2016,03,23,18,31,17.70
2016,03,23,18,32,30.60
2016,03,23,18,33,29.00
2016,03,23,18,34,29.00
2016,03,23,18,35,38.60
2016,03,23,18,36,41.80
2016,03,23,18,37,38.60
2016,03,23,18,38,46.70
2016,03,23,18,39,43.50
2016,03,23,18,40,43.50
2016,03,23,18,41,37.00
2016,03,23,18,42,40.20
2016,03,23,18,43,43.50
2016,03,23,18,44,51.50
2016,03,23,18,45,35.40
2016,03,23,18,46,30.60
2016,03,23,18,47,37.00
2016,03,23,18,48,38.60
2016,03,23,18,49,43.50
2016,03,23,18,50,35.40
2016,03,23,18,51,40.20
2016,03,23,18,52,35.40
2016,03,23,18,53,40.20
2016,03,23,18,54,41.80
2016,03,23,18,55,33.80
2016,03,23,18,56,30.60
2016,03,23,18,57,27.40
2016,03,23,18,58,33.80
2016,03,23,18,59,30.60
2016,03,23,19,00,30.60
2016,03,23,19,01,25.70
2016,03,23,19,02,25.70
2016,03,23,19,03,27.40
2016,03,23,19,04,22.50
2016,03,23,19,05,32.20
2016,03,23,19,06,24.20
2016,03,23,19,07,30.60
2016,03,23,19,08,22.50
2016,03,23,19,09,25.70
2016,03,23,19,10,30.60
2016,03,23,19,11,20.90
2016,03,23,19,12,24.20
2016,03,23,19,13,22.50
2016,03,23,19,14,22.50
2016,03,23,19,15,22.50
2016,03,23,19,16,17.70
2016,03,23,19,17,27.40
2016,03,23,19,18,22.50
2016,03,23,19,19,20.90
2016,03,23,19,20,30.60
2016,03,23,19,21,27.40
2016,03,23,19,22,20.90
2016,03,23,19,23,30.60
2016,03,23,19,24,30.60
2016,03,23,19,25,29.00
2016,03,23,19,26,22.50
2016,03,23,19,27,32.20
2016,03,23,19,28,29.00
2016,03,23,19,29,29.00
2016,03,23,19,30,22.50